Location: Unspecified
(64.9000°N, 0.0000°E)
Time: 04:09:03
(UTC+00:00)

A-11 Canister half - Pass Details

Date: 23 June 2019
Orbit: 1526 x 1683 km, 47.3° (Epoch: 17 July)

Event Time Altitude Azimuth Distance (km) Brightness Sun altitude
Rises 08:35:33 0° 259° (WSW) 4,698 11.2 37.0°
Reaches altitude 10° 08:39:23 10° 246° (WSW) 3,703 10.8 37.3°
Maximum altitude 08:46:06 23° 199° (SSW) 2,803 10.7 38.0°
Drops below altitude 10° 08:52:49 10° 152° (SSE) 3,701 11.9 38.6°
Sets 08:56:39 0° 139° (SE) 4,695 12.4 38.9°
